Hourly Data Report for July 01, 2021

SALLUIT
QUEBEC
Current Station Operator: ECCC - MSC

62°10'46.005" N
75°40'13.006" W
228.00 m
7117800
71641
MFX

Download Data

Hourly Data (July 2021)
Hourly Data Report for July 1, 2021
TIME
LST
Temp Definition
°C
Dew Point Definition
°C
Rel Hum Definition
%
Precip. Amount Definition
mm

Wind Dir Definition
10's deg

Wind Spd Definition
km/h
Visibility Definition
km
Stn Press Definition
kPa
Hmdx Definition


Wind Chill Definition


Weather Definition


00:00 6.0 3.2 82 0.0 20 8   99.34     LegendNANA
01:00 5.4 2.9 84 0.0 22 22   99.28     LegendNANA
02:00 5.3 2.8 84 0.0 22 25   99.26     LegendNANA
03:00 5.7 3.3 85 0.0 22 25   99.23     LegendNANA
04:00 4.7 2.9 88 0.0 20 30   99.22     LegendNANA
05:00 5.7 3.2 84 0.0 24 23   99.25     LegendNANA
06:00 6.2 3.1 81 0.0 22 26   99.18     LegendNANA
07:00 6.0 2.7 79 0.0 24 26   99.19     LegendNANA
08:00 6.1 2.7 79 0.0 22 35   99.15     LegendNANA
09:00 7.0 2.5 73 0.0 24 38   99.09     LegendNANA
10:00 7.7 2.0 67 0.0 24 34   99.06     LegendNANA
11:00 9.1 2.5 63 0.0 25 36   99.07     LegendNANA
12:00 8.9 2.2 63 0.0 24 43   99.03     LegendNANA
13:00 8.7 1.4 60 0.0 24 35   99.07     LegendNANA
14:00 9.3 0.8 55 0.0 24 35   98.95     LegendNANA
15:00 9.8 2.9 62 0.0 24 36   98.92     LegendNANA
16:00 9.5 3.3 65 0.0 24 31   98.90     LegendNANA
17:00 8.5 3.0 68 0.0 25 26   98.87     LegendNANA
18:00 7.1 2.6 73 0.0 27 22   98.89     LegendNANA
19:00 7.0 2.0 71 0.0 23 25   98.87     LegendNANA
20:00 6.1 3.3 82 0.0 26 14   98.90     LegendNANA
21:00 5.5 3.5 87 0.0 19 4   98.85     LegendNANA
22:00 5.5 3.2 85 0.0 20 6   98.78     LegendNANA
23:00 5.4 3.1 85 0.0 20 15   98.75     LegendNANA

Notes on Data Quality.

Legend

  • E = Estimated
  • M = Missing
  • NA = Not Available*
  • [empty] = Indicates an unobserved value
Date modified: